www.pogodaiklimat.ru

Погода и климат >> Архив погоды >> Вьетнам >> Пхульен


ПОГОДА в Пхульене

  • Прогноз погоды в Пхульене
  • Монитор погоды в Пхульене

АРХИВ ПОГОДЫ в Пхульене

Время (UTC), дата Ветер
(напр.,м/с)
 
Видим.   Явления Облачность Т
(С)
Тd
(С)
f
(%)
Тe
(С)
Тes
(С)
Комфортность P
(гПа)
Po
(гПа)
Тmin
(С)
Tmax
(С)
R
(мм)
R24
(мм)
S
(см)
15 11.02 ЮВ 2 10 км 10/10 600 м
[Cu Sc]
+18.8 +17.8 94 +21 +21 комфорт 1022.1 1008.3
18 11.02 ЮВ 1 10 км 10/10 600 м
[Cu Sc]
+18.4 +18.0 98 +20 +20 1022.1 1008.3
21 11.02 В 3 10 км 10/10 600 м
[Cu Sc]
+18.1 +17.7 98 +18 +18 1020.9 1007.1
00 12.02 В 1 6000 м дымка 10/10
[Cu Sc]
+18.3 +18.1 99 +20 +20 1021.9 1008.1 +17.6
03 12.02 В 1 6000 м дымка 10/10 600 м
[Cu Sc]
+21.0 +20.0 94 +27 +27 душно 1023.4 1009.8
06 12.02 В 1 10 км 10/10 600 м
[Cu Sc]
+22.8 +20.6 87 +30 +30 очень
душно
1021.2 1007.6
09 12.02 Ю 2 10 км 10/10 600 м
[Cu Sc]
+23.0 +21.1 89 +31 +31 очень
душно
1019.5 1006.0
12 12.02 Ю 2 10 км 9/9 600 м
[Cu Sc]
+20.4 +19.9 97 +25 +25 комфорт 1020.7 1007.0 +23.5
15 12.02 ЮВ 2 10 км 10/10 600 м
[Cu Sc]
+20.0 +20.0 100 +24 +24 комфорт 1021.7 1008.0
18 12.02 ЮВ 2 10 км 10/10 600 м
[Cu Sc]
+19.8 +19.4 98 +24 +24 комфорт 1021.1 1007.4
21 12.02 ЮВ 2 10 км 10/10 600 м
[Cu Sc]
+19.8 +19.4 98 +24 +24 комфорт 1019.8 1006.1
00 13.02 В 1 6000 м дымка 10/10
[Cu Sc]
+20.0 +19.6 98 +25 +25 комфорт 1020.7 1007.0 +19.5
03 13.02 ЮВ 2 6000 м дымка 10/10 600 м
[Cu Sc]
+21.4 +20.4 94 +27 +27 душно 1021.4 1007.8
06 13.02 Ю 1 10 км 10/10 600 м
[Cu Sc]
+22.1 +20.7 92 +28 +28 душно 1018.7 1005.1
09 13.02 Ю 2 10 км {дождь} 10/10 600 м
[Cu Sc]
+22.2 +20.5 90 +29 +29 очень
душно
1017.2 1003.6
12 13.02 Ю 3 10 км {дождь} 9/9 600 м
[Cu Sc]
+20.7 +20.2 97 +26 +26 душно 1018.2 1004.5 +23.2 0.0
15 13.02 ЮВ 1 10 км 8/8 600 м
[Cu Sc]
+20.7 +20.5 99 +27 +27 душно 1018.8 1005.1
18 13.02 ЮВ 2 10 км 3/3 600 м
[Cu hum]
+20.7 +20.5 99 +26 +26 душно 1018.0 1004.3
21 13.02 СВ 1 10 км ясно +19.8 +19.8 100 +24 +24 комфорт 1016.9 1003.2
00 14.02 штиль 0 6000 м дымка 8/8
[Cu Sc]
+19.6 +19.6 100 +22 +22 комфорт 1018.5 1004.8 +19.0
03 14.02 Ю 1 10 км 9/9 600 м
[Cu Sc]
+23.2 +21.7 91 +31 +33 очень
душно
1019.9 1006.4
06 14.02 Ю 1 10 км 9/9 600 м
[Cu Sc]
+24.6 +21.2 81 +31 +33 очень
душно
1017.4 1003.9
09 14.02 Ю 2 10 км 8/8 600 м
[Cu med, cong]
+24.0 +21.9 88 +31 +31 очень
душно
1015.2 1001.8
12 14.02 ЮВ 2 10 км 10/10 600 м
[Cu Sc]
+21.8 +20.5 92 +28 +28 душно 1016.9 1003.3 +26.7
15 14.02 ЮВ 2 10 км {дождь} 3/3 600 м
[Cu hum]
+21.0 +20.3 96 +27 +27 душно 1017.6 1004.0
18 14.02 ЮВ 2 10 км {дождь} 9/9 600 м
[Cu Sc]
+21.2 +20.9 98 +27 +27 душно 1017.2 1003.6 0.0
21 14.02 В 1 10 км 10/10 600 м
[Cu Sc]
+20.0 +19.6 98 +25 +25 комфорт 1016.4 1002.7
00 15.02 ЮВ 2 10 км {дождь} 9/9
[Cu Sc]
+20.7 +20.5 99 +26 +26 душно 1018.2 1004.5 +20.0 0.1
03 15.02 Ю 1 10 км 10/10 600 м
[Cu Sc]
+23.2 +22.0 93 +32 +32 очень
душно
1019.5 1006.0
06 15.02 Ю 4 10 км 8/3 600 м
[Cu med, cong Cs]
+27.2 +23.1 78 +36 +42 очень
душно
1016.6 1003.3 0.1
09 15.02 Ю 3 10 км 9/3 600 м
[Cu med, cong Cs]
+25.4 +21.9 81 +33 +34 очень
душно
1014.5 1001.2
12 15.02 Ю 2 10 км 8/0
[Cs]
+22.0 +20.4 91 +28 +28 душно 1015.6 1002.1 +27.8 0.1
15 15.02 ЮВ 2 10 км 8/0
[Cs]
+21.3 +20.5 95 +27 +27 душно 1017.2 1003.6
18 15.02 ЮВ 2 10 км 9/9 600 м
[Cu Sc]
+21.3 +20.8 97 +27 +27 душно 1016.4 1002.8
21 15.02 В 1 10 км 10/10 600 м
[Cu Sc]
+21.2 +20.9 98 +27 +27 душно 1015.2 1001.7
00 16.02 ЮВ 3 10 км 10/10 600 м
[Cu Sc]
+21.6 +20.9 96 +27 +27 душно 1016.6 1003.0 +20.7
03 16.02 Ю 2 10 км 10/10 600 м
[Cu Sc]
+23.1 +22.0 94 +31 +31 очень
душно
1017.5 1004.0
06 16.02 Ю 2 10 км 10/10 600 м
[Cu Sc]
+24.4 +22.6 90 +32 +32 очень
душно
1014.5 1001.1
09 16.02 Ю 2 10 км 10/10 600 м
[Cu Sc]
+24.1 +22.6 91 +32 +32 очень
душно
1012.2 998.8
12 16.02 Ю 3 10 км 10/10 600 м
[Cu Sc]
+22.2 +21.7 97 +29 +29 очень
душно
1012.6 999.1 +24.5
15 16.02 ЮВ 3 10 км 10/10 600 м
[Cu Sc]
+21.8 +21.8 100 +28 +28 душно 1014.3 1000.8
18 16.02 В 1 10 км 10/10 600 м
[Cu Sc]
+21.8 +21.1 96 +28 +28 душно 1013.2 999.7
21 16.02 ЮВ 1 10 км слаб. дождь 10/10 600 м
[Cu Sc]
+21.0 +21.0 100 +28 +28 очень
душно
1012.5 999.0
00 17.02 ЮВ 2 10 км слаб. дождь {гроза} 10/10
[Cb cap]
+20.6 +20.6 100 +26 +26 душно 1013.5 999.9 +20.6 4
03 17.02 ЮВ 2 10 км слаб. дождь 10/8 600 м
[Frnb As op]
+20.0 +20.0 100 +24 +25 комфорт 1015.7 1002.1
06 17.02 ЮВ 2 10 км слаб. дождь 10/8 600 м
[Frnb As op]
+20.2 +20.2 100 +25 +25 комфорт 1013.1 999.5 7
09 17.02 В 2 10 км слаб. дождь 10/8 600 м
[Frnb As op]
+20.2 +20.2 100 +25 +25 комфорт 1010.3 996.8
12 17.02 В 1 10 км в посл. час дождь 10/10 600 м
[Cu Sc]
+19.9 +19.9 100 +24 +24 комфорт 1020.5 1007.0 +20.6 9
15 17.02 ЮВ 4 10 км 10/10 600 м
[Cu Sc]
+20.4 +20.0 98 +25 +25 комфорт 1011.7 998.1
18 17.02 ЮВ 3 10 км 10/10 600 м
[Cu Sc]
+20.0 +20.0 100 +24 +24 комфорт 1010.1 996.6
21 17.02 Ю 4 10 км {дождь} 10/10 600 м
[Cu Sc]
+20.3 +20.3 100 +25 +25 комфорт 1008.5 995.0
00 18.02 Ю 4 3000 м дымка {дождь} 9/9
[Cu Sc]
+20.0 +20.0 100 +24 +24 комфорт 1010.3 996.8 +19.8 0.8
03 18.02 Ю 3 6000 м дымка 9/9 600 м
[Cu Sc]
+21.8 +21.5 98 +28 +29 душно 1012.4 998.9
06 18.02 ЮВ 1 6000 м дымка 9/9 600 м
[Cu Sc]
+25.1 +23.5 91 +34 +36 очень
душно
1009.8 996.5 0.9
09 18.02 ЮВ 1 6000 м дымка 10/10 800 м
[Cu Sc]
+24.4 +23.0 92 +32 +32 очень
душно
1007.7 994.4
12 18.02 Ю 2 4000 м дымка 9/9 800 м
[Cu Sc]
+21.6 +21.6 100 +28 +28 очень
душно
1009.4 996.0 +26.0 0.9

 

Местоположение метеостанции Пхульен (Вьетнам): широта 20.80 долгота 106.63 высота над уровнем моря 116 м.

В архиве по умолчанию представлена погода в Пхульене за последнюю неделю. Архивные данные за месяц целиком и за предыдущие месяцы, начиная с января 2011 года, Вы можете получить, выбрав интересующий диапазон дат из раскрывающегося списка и нажав кнопку "Ввод!".


*Определитесь, кто Вы:
робот инопланетянин человек

Внимание! Время в таблицах - всемирное. Для получения местного времени необходимо прибавить поправку, которая равна 7 ч.

Смотрите также архив погоды в соседних городах и на ближайших метеорологических станциях:

Погода в Намдине (Вьетнам) (65 км)
Погода в Ханое (Вьетнам) (90 км)
Погода в Хайфоне (Вьетнам) (91 км)
Погода в Лангсоне (Вьетнам) (115 км)
Погода на Бач Лонг Ви (Вьетнам) (135 км)
Погода в Тханьхоа (Вьетнам) (147 км)
Погода в Монгцае (Вьетнам) (160 км)
Погода в Баккане (Вьетнам) (171 км)
Погода в Лончжоу (Гуанси-Чжуанский автономный район, Китай) (175 км)
Погода в Каобанге (Вьетнам) (212 км)

Пояснения к столбцам:

Ветер - указаны скорость ветра в м/с - средняя за 10 мин, порывы в срок и между сроками (в фигурных скобках) и направление, откуда дует ветер: С - северный, СВ - северо-восточный, В - восточный, ЮВ - юго-восточный, Ю - южный, ЮЗ - юго-западный, З - западный, СЗ - северо-западный.
Видимость - горизонтальная дальность видимости в метрах или километрах. При видимости от 1 до 10 км при отсутствии осадков обычно наблюдается дымка, при ухудшении видимости до 1 км и менее - туман. В сухую погоду видимость может ухудшаться дымом, пылью или мглою.
Явления - указаны атмосферные явления, наблюдавшиеся в срок или в последний час перед сроком; фигурными скобками обозначены явления, наблюдавшиеся между сроками (за 1-3 часа до срока); квадратными скобками обозначены град или гололедные отложения с указанием их диаметра в мм.
Облачность - указаны через наклонную черту общая и нижняя облачность в баллах и высота нижней границы облаков в метрах; квадратными скобками обозначены формы облаков: Ci - перистые, Cs - перисто-слоистые, Cc - перисто-кучевые, Ac - высококучевые, As - высокослоистые, Sc - слоисто-кучевые, Ns - слоисто-дождевые, Cu - кучевые, Cb - кучево-дождевые. Подробнее классификацию облаков см. в Атласе облаков (PDF).
T - Температура воздуха - температура, измеренная на высоте 2 м над землей.
Td - Температура точки росы - температура, при понижении до которой содержащийся в воздухе водяной пар достигнет насыщения.
f - Относительная влажность воздуха - влажноcть воздуха, измеренная на высоте 2 м над землей.
Te - Эффективная температура - температура, которую ощущает одетый по сезону человек в тени. Характеристика душности погоды. При расчете учитывается влияние влажности воздуха и скорости ветра на теплоощущения человека.
Tes - Эффективная температура на солнце - температура, которую ощущает человек, с поправкой на солнечный нагрев. Характеристика знойности погоды. Зависит от высоты солнца над горизонтом, облачности и скорости ветра. Ночью, в пасмурную погоду, а также при ветре 12 м/с и более поправка равна нулю.
P - Атмосферное давление - приведенное к уровню моря атмосферное давление.
Po - Атмосферное давление - измеренное на уровне метеостанции атмосферное давление.
Tmin - Минимальная температура - минимум температуры воздуха на высоте 2 м над землей.
Tmax - Максимальная температура - максимум температуры воздуха на высоте 2 м над землей.
R - Количество осадков - Количество выпавших осадков за период времени, мм. При наведении курсора мыши на число - период времени, за который выпало указанное количество осадков.
R24 - Количество осадков - Количество выпавших осадков за 24 часа, мм.
S - Снежный покров - Высота снежного покрова, см. При наведении курсора мыши на число - состояние снежного покрова и степень покрытия местности в баллах.